User: anonymous   Login
Location: Ash Swamp
(41.5170°N, 74.6157°W)
Time: 07:15:52
(UTC+00:00)
Language:

CENTAUR R/B - Orbit

View from above orbital plane
View from above orbital plane
View from above satellite
View from above satellite

Ground track
Ground track

The orbit data is extracted from the following two-line orbital elements,

1 26906U 01040B   20263.83272566 0.00000000  00000-0  00000-0 0    03
2 26906  63.4393 158.1706 0452080 339.4803  20.5401 13.44062405    01
Epoch (UTC): 19 September 2020 19:59:07
Eccentricity: 0.0452080
inclination: 63.4393°
perigee height: 756 km
apogee height: 1432 km
right ascension of ascending node: 158.1706°
argument of perigee: 339.4803°
revolutions per day: 13.44062405
mean anomaly at epoch: 20.5401°
orbit number at epoch: 0

The dashed part of the orbit path shows where the satellite is in the earth's shadow,  

DLR